Find Starlink 32717

NORAD ID: 62491 Int'l Des: 2025-003 Owner: SPXS Country: US Constellation: starlink operational
LEOCIRCULAR

リアルタイム位置

3D地球を読み込み中...

Starlink 32717について

説明を読み込み中...

次回通過

Passes for default location (London). Set your location on the main map for personalized predictions.

高度履歴

Loading altitude history...

軌道要素

1 62491U 25003E 26124.27127844 .00021301 00000-0 78091-3 0 9997
2 62491 43.0004 334.9410 0002202 273.1412 86.9187 15.27597607 75173
Epoch: May 4, 2026 • Age: 14 hours

現在のステータス

高度 493.7 km
速度 7.62 km/s
衛星直下点 -40.30°S, 51.39°E
打ち上げ日 Jan 6, 2025
運用期間 1.3 years
タイプ internet

技術仕様

分類 Payload
質量 730.00 kg
乾燥質量 700.00 kg
総質量 730.00 kg
長さ 0.30 m
直径 4.10 m
スパン 29.00 m
形状 Box + pan
製造者 SPXS
バスタイプ Starlink V2M
フェーズステータス In Orbit
所有者/国 SPXS/US

Most Searched